Torna al catalogo

CHINASAT 11

AttivoComunicazioniGEO
NORAD 39157·PAYLOAD·🇨🇳 China

Lanciato May 1, 2013 da Xichang Satellite Launch Center

Loading…

TLE

AggiornatoSource: Space-Track

Epoca: Sep 14, 2026, 14:16 UTC

1 39157U 13020A   26257.59451442 -.00000299  00000-0  00000-0 0  9998
2 39157   0.0482 298.7165 0001147 171.5217 195.2783  1.00272546 48796

Traccia CHINASAT 11 in tempo reale con AllMySat

Download on the App Store